This is the latest recevied weather packets stored in our database for station/object K6GMW. If no packets are shown the sender has not sent any weather packets the latest 10 day(s).
| Time | Temp. | Humidity | Pressure | Rain* | Wind** | Luminosity | Snow |
|---|---|---|---|---|---|---|---|
| 1777995106 | 23.33° C | 80% | 1008.2 hPa | 0 mm | - | 207 W/m² | - |
| 1777994803 | 22.78° C | 80% | 1008.1 hPa | 0 mm | - | 201 W/m² | - |
| 1777994498 | 22.78° C | 81% | 1008.1 hPa | 0 mm | - | 161 W/m² | - |
| 1777994194 | 22.78° C | 82% | 1008 hPa | 0 mm | - | 182 W/m² | - |
| 1777993891 | 22.78° C | 81% | 1008.3 hPa | 0 mm | - | 198 W/m² | - |
| 1777993587 | 22.78° C | 82% | 1008.1 hPa | 0 mm | - | 222 W/m² | - |
| 1777993285 | 22.78° C | 82% | 1008.3 hPa | 0 mm | - | 138 W/m² | - |
| 1777992980 | 22.22° C | 83% | 1008.1 hPa | 0 mm | - | 173 W/m² | - |
| 1777992679 | 22.22° C | 84% | 1008.3 hPa | 0 mm | - | 146 W/m² | - |
| 1777992376 | 22.22° C | 84% | 1008.2 hPa | 0 mm | - | 119 W/m² | - |
| 1777992074 | 22.22° C | 85% | 1008.1 hPa | 0 mm | - | 101 W/m² | - |
| 1777991771 | 22.22° C | 85% | 1008.3 hPa | 0 mm | - | 112 W/m² | - |
| 1777991468 | 21.67° C | 85% | 1008.2 hPa | 0 mm | - | 121 W/m² | - |
| 1777991165 | 21.67° C | 86% | 1008.2 hPa | 0 mm | - | 93 W/m² | - |
| 1777990863 | 21.67° C | 86% | 1008.1 hPa | 0 mm | - | 82 W/m² | - |
| 1777990559 | 21.67° C | 86% | 1008.1 hPa | 0 mm | - | 130 W/m² | - |
| 1777989953 | 21.67° C | 86% | 1008.2 hPa | 0 mm | - | 64 W/m² | - |
| 1777989650 | 21.67° C | 86% | 1008.1 hPa | 0 mm | - | 71 W/m² | - |
| 1777989346 | 21.67° C | 86% | 1008.2 hPa | 0 mm | - | 64 W/m² | - |
| 1777989042 | 21.67° C | 86% | 1008.1 hPa | 0 mm | - | 61 W/m² | - |
| 1777988738 | 21.67° C | 86% | 1008 hPa | 0 mm | - | 55 W/m² | - |
| 1777988436 | 21.67° C | 86% | 1007.9 hPa | 0 mm | - | 49 W/m² | - |
| 1777988133 | 21.67° C | 86% | 1007.9 hPa | 0 mm | - | 43 W/m² | - |
| 1777987829 | 21.67° C | 86% | 1008.1 hPa | 0 mm | - | 43 W/m² | - |
| 1777987526 | 21.67° C | 85% | 1008 hPa | 0 mm | - | 38 W/m² | - |
* Rain latest hour (hover to see other rain measurements)
** Current wind speed in m/s (hover to see current wind gust speed)